STARLINK-1762, 46342

Orbit data source: Space-Track

STARLINK-1762, 46342 is a payload satellite owned by SpaceX/Seattle (US) in LEO that was launched on Thu, 03 Sep 2020 UTC via an FALCON 9 launch vehicle from the Air Force Eastern Test Range (AFETR). Payload-class satellites include a variety of spacecraft equipped with specific instruments for various scientific and technological missions. These include communications satellites like Starlink; space stations such as the ISS; scientific satellites like the Hubble; Earth observation satellites from companies like Planet Labs, Umbra, and HawkEye 360; GPS; miniature CubeSats for education and research; and military/defense satellites.

Loading next visibility...
Identifier
46342, 2020-062T
Orbit
LEO
Country
Flag of USUS
Related business
Manufacturer
SpaceX/Seattle
Mission
Operational Commercial Communications
Bus & Motor
STARLINK, Unknown motor
Mass
260 kg wet, ~248 kg dry
Launch date (UTC)
2020-09-03 (6 years ago)
Launch vehicle
FALCON 9
Launch site
Air Force Eastern Test Range (AFETR)
Object type
Payload
Rocket body
Debris
Shape & HBR
Box + 1 Pan, 10.1 m
Radar Cross Section
13.562 m², Large (>1 m²)

Expand to show TLE details & history
Last TLE update: 1 day ago

TLE from 1 day ago
0 STARLINK-1762
1 46342U 20062T   26120.34217339  .00055093  00000-0  16311-2 0  9998
2 46342  53.1558 130.4127 0004696  51.8932 308.2493 15.34365612312314
Epoch: 2026-04-30T08:12Z
TLE epoch observation values (Epoch: 2026-04-30T08:12:43.780Z)
Latitude
-0.00007°
Longitude
148.94007°
Altitude
461.718 km
Speed
7.638 km/s
True Right ascension
08h 41m 39s
True Declination
0° 00' 00"
Sunlit
Object was in daylight at epoch
Visualization orbit readout
Latitude
Unknown
Longitude
Unknown
Altitude
Unknown
Speed
Unknown
Apparent Right ascension
Unknown
Apparent Declination
Unknown
Sunlit
N/A
Visualization observer readout
Local Sidereal Time
16:47:44
Azimuth
Unknown
Elevation
Unknown
Doppler factor
Unknown
Orbital elements
Apogee altitude
466.276 km
Perigee altitude
459.85 km
Semi-major axis
6,841.2 km
Eccentricity
0.00047
Inclination
53.1558°
RAAN
130.4127°
Arg. of periapsis
51.8932°
True anomaly
308.20702°
Mean anomaly
308.2493°
Eccentric anomaly
308.22816°
Mean motion
3.8357 °/min
Orbital period
93.86 mins
BSTAR
0.0016311
Loading maneuver chart data...
Computing Atmospheric mass density...
Loading historical data...
Loading historical data...
Loading historical data...
Loading historical data...
Loading historical data...
Loading historical data...
Loading historical data...

Documentation

Showing up to 5 results
|